Time,TemperatureF,DewpointF,PressureIn,WindDirection,WindDirectionDegrees,WindSpeedMPH,WindSpeedGustMPH,Humidity,HourlyPrecipIn,Conditions,Clouds,dailyrainin,SoftwareType,DateUTC
2013-03-19 16:17:00,31.6,26.5,29.01,NNW,338,7.3,10.0,81,0.00,,,0.00,WUHU216HW,2013-03-19 20:17:00,
2013-03-19 16:22:00,31.6,26.5,29.01,North,0,6.9,10.0,81,0.00,,,0.03,WUHU216HW,2013-03-19 20:22:00,
2013-03-19 16:27:00,31.6,26.5,29.02,North,0,7.1,9.6,81,0.00,,,0.03,WUHU216HW,2013-03-19 20:27:00,
2013-03-19 16:32:00,31.8,26.7,29.02,SSW,203,8.9,9.1,81,0.00,,,0.03,WUHU216HW,2013-03-19 20:32:00,
2013-03-19 16:37:00,32.3,26.9,29.02,North,0,9.1,9.1,80,0.00,,,0.03,WUHU216HW,2013-03-19 20:37:00,
2013-03-19 16:42:00,33.0,26.9,29.03,North,0,12.7,12.7,78,0.00,,,0.03,WUHU216HW,2013-03-19 20:42:00,
2013-03-19 16:47:00,33.6,25.1,29.03,North,0,19.6,20.8,71,0.00,,,0.03,WUHU216HW,2013-03-19 20:47:00,
2013-03-19 16:52:00,33.2,24.1,29.03,SSW,203,15.6,20.8,69,0.00,,,0.03,WUHU216HW,2013-03-19 20:52:00,
2013-03-19 16:57:00,33.4,24.2,29.03,North,0,17.6,17.6,69,0.02,,,0.05,WUHU216HW,2013-03-19 20:57:00,
2013-03-19 17:02:00,33.0,23.9,29.03,North,0,19.6,19.6,69,0.02,,,0.05,WUHU216HW,2013-03-19 21:02:00,
2013-03-19 17:07:00,32.7,23.2,29.03,NNW,338,18.5,19.6,68,0.02,,,0.05,WUHU216HW,2013-03-19 21:07:00,
2013-03-19 17:13:00,32.9,23.4,29.03,North,0,14.7,18.5,68,0.02,,,0.05,WUHU216HW,2013-03-19 21:13:00,
2013-03-19 17:18:00,32.7,22.9,29.03,North,0,12.9,18.5,67,0.02,,,0.05,WUHU216HW,2013-03-19 21:18:00,
2013-03-19 17:23:00,32.7,22.5,29.03,North,0,17.6,17.8,66,0.02,,,0.05,WUHU216HW,2013-03-19 21:23:00,
2013-03-19 17:28:00,32.3,22.2,29.04,NNW,338,16.5,21.2,66,0.02,,,0.05,WUHU216HW,2013-03-19 21:28:00,
2013-03-19 17:34:00,32.7,22.2,29.04,North,0,9.8,21.6,65,0.02,,,0.05,WUHU216HW,2013-03-19 21:34:00,
2013-03-19 17:39:00,34.7,24.0,29.04,North,0,14.5,22.5,65,0.02,,,0.05,WUHU216HW,2013-03-19 21:39:00,
2013-03-19 17:44:00,34.1,22.8,29.04,North,0,14.9,17.4,63,0.02,,,0.05,WUHU216HW,2013-03-19 21:44:00,
2013-03-19 17:49:00,33.6,22.2,29.04,SSW,203,16.3,16.3,63,0.02,,,0.05,WUHU216HW,2013-03-19 21:49:00,
2013-03-19 17:54:00,32.9,21.6,29.04,SSW,203,12.7,18.5,63,0.00,,,0.05,WUHU216HW,2013-03-19 21:54:00,
2013-03-19 17:59:00,32.9,21.2,29.04,SSW,203,13.1,18.5,62,0.00,,,0.05,WUHU216HW,2013-03-19 21:59:00,
2013-03-19 18:04:00,32.5,20.9,29.05,North,0,15.6,15.6,62,0.00,,,0.05,WUHU216HW,2013-03-19 22:04:00,
2013-03-19 18:09:00,32.7,20.7,29.05,SSW,203,22.1,22.1,61,0.00,,,0.05,WUHU216HW,2013-03-19 22:09:00,
2013-03-19 18:14:00,33.0,21.4,29.05,SSW,203,14.0,22.1,62,0.00,,,0.05,WUHU216HW,2013-03-19 22:14:00,
2013-03-19 18:19:00,33.6,21.5,29.05,SSW,203,18.7,22.1,61,0.00,,,0.05,WUHU216HW,2013-03-19 22:19:00,
2013-03-19 18:24:00,34.1,21.4,29.05,North,0,19.0,20.8,59,0.00,,,0.05,WUHU216HW,2013-03-19 22:24:00,
2013-03-19 18:29:00,34.3,21.9,29.06,SSW,203,11.4,19.0,60,0.00,,,0.05,WUHU216HW,2013-03-19 22:29:00,
2013-03-19 18:34:00,33.4,20.6,29.06,SSW,203,18.7,19.0,59,0.00,,,0.05,WUHU216HW,2013-03-19 22:34:00,
2013-03-19 18:39:00,32.5,20.6,29.06,North,0,10.7,19.2,61,0.00,,,0.05,WUHU216HW,2013-03-19 22:39:00,
2013-03-19 18:44:00,31.6,19.4,29.06,SSW,203,17.2,19.2,60,0.02,,,0.05,WUHU216HW,2013-03-19 22:44:00,
2013-03-19 18:49:00,31.2,19.7,29.07,SSW,203,6.7,18.7,62,0.02,,,0.07,WUHU216HW,2013-03-19 22:49:00,
2013-03-19 18:54:00,31.1,20.3,29.07,North,0,18.7,21.9,64,0.02,,,0.07,WUHU216HW,2013-03-19 22:54:00,
2013-03-19 18:59:00,30.9,20.1,29.08,North,0,18.3,21.9,64,0.02,,,0.07,WUHU216HW,2013-03-19 22:59:00,
2013-03-19 19:04:00,30.9,19.7,29.07,North,0,18.1,18.7,63,0.02,,,0.07,WUHU216HW,2013-03-19 23:04:00,
2013-03-19 19:09:00,30.3,19.2,29.07,NNW,338,20.1,20.1,63,0.04,,,0.09,WUHU216HW,2013-03-19 23:09:00,
2013-03-19 19:14:00,30.2,19.0,29.08,North,0,11.4,20.3,63,0.04,,,0.09,WUHU216HW,2013-03-19 23:14:00,
2013-03-19 19:19:00,29.8,19.4,29.08,North,0,14.5,20.3,65,0.04,,,0.09,WUHU216HW,2013-03-19 23:19:00,
2013-03-19 19:24:00,29.6,19.2,29.08,SSW,203,16.5,17.4,65,0.04,,,0.09,WUHU216HW,2013-03-19 23:24:00,
2013-03-19 19:29:00,29.4,19.1,29.08,SSW,203,17.6,17.6,65,0.04,,,0.09,WUHU216HW,2013-03-19 23:29:00,
2013-03-19 19:34:00,29.4,19.1,29.08,NNW,338,16.1,17.6,65,0.04,,,0.09,WUHU216HW,2013-03-19 23:34:00,
2013-03-19 19:39:00,29.1,19.1,29.08,North,0,15.8,16.7,66,0.04,,,0.09,WUHU216HW,2013-03-19 23:39:00,
2013-03-19 19:44:00,29.1,19.5,29.08,North,0,17.8,17.8,67,0.02,,,0.09,WUHU216HW,2013-03-19 23:44:00,
2013-03-19 19:49:00,29.1,19.5,29.08,NNW,338,7.8,17.8,67,0.02,,,0.09,WUHU216HW,2013-03-19 23:49:00,
2013-03-19 19:55:00,28.9,19.7,29.08,North,0,20.1,20.1,68,0.02,,,0.09,WUHU216HW,2013-03-19 23:55:00,
2013-03-19 20:01:00,28.9,19.7,29.09,North,0,11.1,22.8,68,0.02,,,0.09,WUHU216HW,2013-03-20 00:01:00,
2013-03-19 20:05:00,28.9,19.3,29.09,North,0,13.6,22.8,67,0.00,,,0.09,WUHU216HW,2013-03-20 00:05:00,
2013-03-19 20:10:00,28.9,19.3,29.09,SSW,203,11.8,13.6,67,0.00,,,0.09,WUHU216HW,2013-03-20 00:10:00,
2013-03-19 20:15:00,28.7,18.8,29.09,North,0,21.6,21.6,66,0.00,,,0.09,WUHU216HW,2013-03-20 00:15:00,
2013-03-19 20:20:00,28.7,19.1,29.09,North,0,12.7,21.6,67,0.00,,,0.09,WUHU216HW,2013-03-20 00:20:00,
2013-03-19 20:25:00,28.9,18.9,29.09,SSW,203,17.8,21.6,66,0.00,,,0.09,WUHU216HW,2013-03-20 00:25:00,
2013-03-19 20:31:00,28.9,18.6,29.09,North,0,21.0,21.6,65,0.00,,,0.09,WUHU216HW,2013-03-20 00:31:00,
2013-03-19 20:36:00,29.1,19.1,29.09,North,0,16.5,21.6,66,0.00,,,0.09,WUHU216HW,2013-03-20 00:36:00,
2013-03-19 20:41:00,28.9,18.9,29.09,SSW,203,13.4,21.4,66,0.00,,,0.09,WUHU216HW,2013-03-20 00:41:00,
2013-03-19 20:46:00,28.9,18.2,29.09,North,0,18.7,19.6,64,0.00,,,0.09,WUHU216HW,2013-03-20 00:46:00,
2013-03-19 20:51:00,28.9,18.2,29.09,SSW,203,15.8,19.6,64,0.00,,,0.09,WUHU216HW,2013-03-20 00:51:00,
2013-03-19 20:56:00,28.7,18.1,29.09,SSW,203,16.7,20.1,64,0.00,,,0.09,WUHU216HW,2013-03-20 00:56:00,
2013-03-19 21:01:00,28.7,18.4,29.09,North,0,11.4,20.1,65,0.00,,,0.09,WUHU216HW,2013-03-20 01:01:00,
2013-03-19 21:06:00,28.7,18.4,29.09,SSW,203,14.0,19.9,65,0.00,,,0.09,WUHU216HW,2013-03-20 01:06:00,
2013-03-19 21:12:00,28.7,18.1,29.09,North,0,20.3,20.8,64,0.00,,,0.09,WUHU216HW,2013-03-20 01:12:00,
2013-03-19 21:17:00,28.5,18.3,29.09,North,0,14.7,20.8,65,0.04,,,0.14,WUHU216HW,2013-03-20 01:17:00,
2013-03-19 21:22:00,28.5,18.3,29.09,North,0,17.6,20.3,65,0.04,,,0.14,WUHU216HW,2013-03-20 01:22:00,
2013-03-19 21:27:00,28.5,18.3,29.09,North,0,18.5,18.5,65,0.04,,,0.14,WUHU216HW,2013-03-20 01:27:00,
2013-03-19 21:32:00,28.5,18.3,29.10,North,0,22.3,22.3,65,0.04,,,0.14,WUHU216HW,2013-03-20 01:32:00,
2013-03-19 21:37:00,28.5,18.3,29.10,SSW,203,15.8,22.3,65,0.04,,,0.14,WUHU216HW,2013-03-20 01:37:00,
2013-03-19 21:42:00,28.4,18.5,29.10,North,0,17.4,22.3,66,0.04,,,0.14,WUHU216HW,2013-03-20 01:42:00,
2013-03-19 21:47:00,28.2,18.6,29.11,North,0,18.3,18.3,67,0.04,,,0.14,WUHU216HW,2013-03-20 01:47:00,
2013-03-19 21:53:00,28.2,18.6,29.11,North,0,10.7,18.3,67,0.04,,,0.14,WUHU216HW,2013-03-20 01:53:00,
2013-03-19 21:58:00,28.2,19.0,29.11,North,0,12.0,18.3,68,0.04,,,0.14,WUHU216HW,2013-03-20 01:58:00,
2013-03-19 22:03:00,28.2,19.0,29.10,SSW,203,14.9,14.9,68,0.04,,,0.14,WUHU216HW,2013-03-20 02:03:00,
2013-03-19 22:05:00,28.0,18.5,29.10,SSW,203,15.2,15.2,67,0.04,,,0.14,WUHU216HW,2013-03-20 02:05:00,